Location: ????????
(55.8667°N, 37.5833°E)
Time: 03:16:25
(UTC+00:00)

Daily predictions for brighter satellites

Satellite Brightness Start Highest point End
(mag) Time Altitude Azimuth Time Altitude Azimuth Time Altitude Azimuth
CENTAUR R/B 3.9 00:15:48 28° SE 00:16:41 29° ESE 00:22:34 10° ENE
Cosmos 2344 4.1 00:27:38 44° SSE 00:29:01 48° ESE 00:36:48 10° NE
SL-16 R/B 4.1 00:35:19 17° NNW 00:38:11 25° NNE 00:42:49 10° E
ARIANE 5 R/B 3.4 00:41:34 10° NNE 00:44:59 44° NNE 00:44:59 44° NNE
Cosmos 2333 Rocket 4.3 00:44:58 16° NNW 00:46:42 18° N 00:50:34 10° NE
CZ-2C R/B 4.2 00:42:43 10° NNE 00:47:02 28° E 00:50:07 15° SE
Cosmos 1867 4.3 00:53:03 46° N 00:53:03 46° N 00:57:23 10° NE
Cosmos 1697 Rocket 2.9 00:53:09 69° E 00:53:09 69° E 00:58:21 10° SE
Cosmos 2237 Rocket 4.1 00:52:27 18° NNW 00:52:59 18° N 00:56:50 10° NNE
USA 238 DEB 3.9 00:53:35 53° SSE 00:54:38 59° SE 01:01:27 10° NE
USA 238 3.9 00:53:40 52° SSE 00:54:44 58° SE 01:01:33 10° NE
ADEOS II 3.4 00:51:36 10° N 00:54:29 31° N 00:54:29 31° N
NOSS 3-2 (A) 3.6 00:57:02 61° SSE 00:57:31 63° SE 01:04:13 10° NE
Cosmos 2360 Rocket 4.2 00:59:18 14° NNW 01:02:34 22° NNE 01:06:52 10° ENE
Lacrosse 4 Rocket 3.1 01:05:42 28° ESE 01:05:42 28° ESE 01:09:00 10° ENE
Cosmos 1943 4.1 01:06:57 36° NNW 01:06:57 36° NNW 01:11:20 10° NNE
Meteor 1-21 4.3 01:08:11 64° NNW 01:08:11 64° NNW 01:13:02 10° NNE
Tsikada Rocket 4.1 01:09:32 58° NW 01:09:32 58° NW 01:14:58 10° N
Cosmos 967 Rocket 4.3 01:08:05 70° NW 01:08:54 89° SW 01:15:12 10° SE
USA 234 3.1 01:04:22 10° ENE 01:10:58 79° SSE 01:12:02 64° SW
Resurs 1-4 Rocket 4.0 01:07:51 10° N 01:09:54 19° NNW 01:09:54 19° NNW
Lacrosse 5 rocket 3.7 01:14:27 14° SE 01:14:35 14° SE 01:16:36 10° E
Cosmos 1980 Rocket 2.5 01:12:46 32° NNW 01:15:23 64° NE 01:20:57 10° SE
ADEOS Rocket 2.6 01:11:24 10° SSE 01:16:54 90° WSW 01:22:42 10° NNW
SL-16 R/B 3.9 01:18:45 20° NNW 01:19:15 20° NNW 01:23:26 10° NNE
Cosmos 2180 Rocket 4.3 01:13:30 10° NNW 01:19:50 86° W 01:26:03 10° S
Cosmos 1048 Rocket 4.1 01:22:34 67° NNW 01:22:34 67° NNW 01:27:36 10° NNE
Cosmos 494 Rocket 3.8 01:24:19 83° SW 01:24:31 88° WNW 01:29:51 10° NNE
Spot 4 Rocket 3.9 01:21:37 10° NNE 01:26:41 76° WNW 01:26:41 76° WNW
Cosmos 1025 Rocket 3.4 01:28:23 59° NNE 01:28:23 59° NNE 01:32:00 10° NNE
Cosmos 2228 3.8 01:23:59 10° N 01:28:16 52° ENE 01:32:33 10° SSE
Cosmos 2219 Rocket 4.3 01:25:06 12° NNW 01:28:26 19° NNE 01:32:28 10° ENE
Geosat 3.8 01:24:58 10° SE 01:30:01 85° SW 01:30:47 65° NW
CZ-2D R/B 4.0 01:27:08 10° N 01:28:58 16° NNW 01:28:58 16° NNW
Cosmos 1269 Rocket 4.3 01:28:50 38° S 01:30:46 64° ESE 01:36:03 10° NNE
Intercosmos 24 4.5 01:27:43 10° N 01:31:55 54° ENE 01:35:25 10° SSE
Cosmos 2360 4.0 01:31:12 48° NW 01:32:52 80° WSW 01:38:34 10° SSE
Cosmos 1606 Rocket 4.0 01:33:58 10° N 01:38:25 61° ENE 01:42:52 10° SSE
IDEFIX/ARIANE 42P 2.8 01:33:23 10° N 01:38:05 51° NW 01:38:05 51° NW
GP-B 3.8 01:40:44 41° NNW 01:40:44 41° NNW 01:43:44 10° N
Cosmos 1400 Rocket 3.8 01:38:12 10° N 01:42:04 46° ENE 01:45:51 10° SE
Cosmos 2278 3.6 01:42:15 26° NW 01:45:39 87° SW 01:51:19 10° SSE
Cosmos 2322 Rocket 3.4 01:41:46 11° NNW 01:47:00 39° NE 01:52:18 10° ESE
MSX 3.8 01:41:42 10° NNE 01:47:24 64° WNW 01:49:00 45° SW
KORONAS-FOTON 3.7 01:50:42 85° N 01:50:42 85° N 01:54:31 10° NNE
Cosmos 2279 Rocket 4.1 01:45:27 10° NNW 01:51:20 46° W 01:52:18 43° WSW
ALOS 3.4 01:49:23 10° NNE 01:53:52 44° E 01:58:19 10° S
COSMO-SKYMED 1 3.6 01:50:11 10° SE 01:54:21 47° ENE 01:58:33 10° N
Cosmos 220 Rocket 4.0 01:55:45 59° SW 01:55:45 59° SW 01:59:48 10° SSE
In-Cosmos 22 4.0 01:54:03 41° SW 01:55:54 67° WNW 02:01:25 10° NNE
Cosmos 1992 Rocket 3.8 01:53:46 25° NW 01:56:49 71° WSW 02:02:00 10° SSE
Cosmos 1300 2.8 01:53:15 10° N 01:57:06 73° ENE 02:00:55 10° SSE
Cosmos 1833 Rocket 3.2 01:52:04 12° SSW 01:57:10 58° ESE 02:02:43 10° NE
NOSS 3-2 (C) 3.5 01:55:54 34° SW 01:58:43 83° SE 02:05:40 10° NE
CZ-4B R/B 2.0 02:01:26 10° SSE 02:04:01 47° S 02:04:01 47° S
CZ-2C R/B 3.6 02:02:26 10° N 02:05:28 37° NW 02:05:28 37° NW
CENTAUR R/B 2.6 02:02:59 30° SW 02:06:29 88° SE 02:14:04 10° NE
SL-14 R/B 3.9 02:03:02 10° S 02:06:58 58° E 02:10:58 10° NNE
Cosmos 1674 2.8 02:07:44 56° NW 02:07:44 56° NW 02:11:11 10° N
Cosmos 1626 2.3 02:05:15 13° S 02:08:33 70° E 02:12:15 10° NNE
Cosmos 2369 3.9 02:07:28 34° WNW 02:09:23 46° WSW 02:14:44 10° S
Cosmos 1536 Rocket 3.7 02:11:06 46° WSW 02:11:46 51° WNW 02:16:10 10° N
Cosmos 2058 Rocket 3.4 02:08:08 10° N 02:12:39 68° ENE 02:17:07 10° SSE
Cosmos 1315 Rocket 4.3 02:09:43 10° N 02:13:37 39° ENE 02:17:31 10° SE
Cosmos 1689 Rocket 2.7 02:10:57 10° SSE 02:13:50 54° ENE 02:16:19 13° N
CBERS 1 LM4 rocket 4.3 02:10:18 10° NNE 02:15:20 89° WNW 02:20:09 10° SSW
Meteor 1-24 Rocket 4.2 02:10:50 10° S 02:16:27 64° E 02:22:18 10° NNE
Cosmos 1484 Rocket 3.0 02:15:44 10° NNE 02:19:39 69° ESE 02:23:27 10° S
Cosmos 2082 Rocket 3.0 02:14:30 10° S 02:19:55 52° ESE 02:25:22 10° NE
SL-16 R/B 2.6 02:17:41 10° NNW 02:23:22 65° NE 02:29:01 10° SE
ARIANE 5 R/B 3.6 02:21:19 10° N 02:25:17 24° NW 02:25:19 24° NW
CZ-2C R/B 2.5 02:20:40 10° N 02:25:37 57° WNW 02:29:29 15° SW
Cosmos 1461 4.0 02:21:24 10° SSW 02:25:47 50° SE 02:30:23 10° NE
PSLV R/B 3.7 02:22:12 10° N 02:26:22 51° WNW 02:28:32 26° SW
Cosmos 1892 Rocket 4.1 02:22:34 10° S 02:26:51 61° E 02:31:12 10° NNE
COSMOS 2428 4.5 02:26:33 10° NNW 02:31:23 27° NNE 02:36:11 10° E
Cosmos 2251 Rocket 4.0 02:27:15 10° SSW 02:32:32 63° ESE 02:37:50 10° NNE
Cosmos 2333 Rocket 3.8 02:27:54 10° NNW 02:32:52 29° NNE 02:37:47 10° E
ADEOS II 3.9 02:32:39 10° NNW 02:35:20 14° NW 02:35:25 14° NW
Cosmos 1697 Rocket 3.5 02:35:00 26° W 02:36:14 28° WSW 02:40:58 10° SSW
CREW DRAGON DEMO-1 DEB 4.3 02:36:55 23° SSW 02:37:03 23° SSW 02:39:31 10° SE
USA 290 2.9 02:34:31 10° SSW 02:37:41 56° ESE 02:40:55 10° NE
ISS -1.9 02:36:08 16° SSW 02:38:03 25° SSE 02:40:53 10° E
Cosmos 2237 Rocket 4.2 02:35:04 10° NNW 02:39:12 20° NNE 02:43:20 10° ENE
NOSS 5 (C) 4.3 02:39:25 34° WSW 02:40:41 63° NW 02:43:44 10° NE
SKYMED 2 3.5 02:38:03 10° S 02:42:23 70° WSW 02:46:45 10° NNW
Cosmos 2344 3.7 02:37:40 20° WSW 02:43:09 68° NNW 02:52:11 10° ENE
Lacrosse 4 Rocket 1.5 02:42:02 27° WSW 02:43:58 53° NW 02:47:59 10° NE
Meteor 1-31 Rocket 2.8 02:40:24 10° NNE 02:44:22 89° E 02:48:19 10° SSW
COSMOS 2406 3.2 02:39:29 14° SW 02:44:27 66° NW 02:50:08 10° NNE
Cosmos 1455 2.9 02:41:31 10° N 02:45:21 56° ENE 02:49:11 10° SSE
FENGYUN 3A 3.6 02:40:01 10° NNE 02:45:29 80° WNW 02:50:55 10° SSW
USA 238 DEB 3.8 02:41:03 21° W 02:45:41 62° NNW 02:52:45 10° NE
USA 238 3.8 02:41:08 21° W 02:45:46 62° NNW 02:52:50 10° NE
PSLV R/B 3.9 02:41:42 10° S 02:45:54 71° WSW 02:50:08 10° NNW
DNEPR-1 R/B 3.9 02:42:52 15° NW 02:47:37 88° NE 02:52:16 10° SE
Meteor 2-5 Rocket 3.7 02:41:58 10° SSW 02:47:42 69° WNW 02:53:36 10° NNE
Cosmos 2360 Rocket 3.0 02:42:20 10° NNW 02:47:52 52° NE 02:53:21 10° ESE
CZ-4B R/B 3.5 02:44:23 10° NNE 02:48:19 60° ESE 02:52:27 10° S
NOSS 3-2 (A) 3.8 02:44:26 21° W 02:48:35 57° NNW 02:55:41 10° ENE
Lacrosse 5 rocket 1.7 02:50:07 15° SW 02:52:57 52° SSE 02:56:44 10° ENE
USA 234 3.3 02:47:31 10° E 02:54:05 81° N 02:59:22 17° W
ATLAS 3B R/B 2.9 02:48:05 10° SW 02:54:37 72° SE 03:01:20 10° NE
Cosmos 1812 Rocket 4.2 02:51:56 10° N 02:56:15 58° ENE 03:00:30 10° SSE
Cosmos 1980 Rocket 2.8 02:54:35 12° NW 02:59:06 33° WSW 03:04:01 10° S
Cosmos 1726 Rocket 4.2 02:56:15 10° NNW 03:00:16 34° W 03:04:16 10° SSW
ADEOS Rocket 4.0 02:59:37 10° SW 03:03:26 19° W 03:07:22 10° NW
Cosmos 2098 Rocket 4.2 02:58:22 10° S 03:03:53 56° E 03:08:17 10° NNE
Meteor 2-13 Rocket 4.5 02:58:27 10° SSW 03:04:29 58° WNW 03:10:34 10° N
Cosmos 1092 Rocket 4.0 02:58:42 10° SSW 03:04:50 64° WNW 03:11:05 10° N
Cosmos 2228 4.1 03:02:02 10° NNW 03:05:32 24° W 03:09:03 10° SW
SL-16 R/B 4.1 03:01:38 10° NNW 03:05:33 18° N 03:09:27 10° NE
ADEOS 3.7 03:02:09 10° N 03:07:16 56° WNW 03:12:22 10° SW
Cosmos 2084 Rocket 4.0 03:04:26 13° NW 03:08:12 57° NNE 03:12:36 10° ESE
CZ-2C R/B 3.9 03:03:27 10° SE 03:08:46 46° ENE 03:14:07 10° N
Nadezhda 4 Rocket 4.3 03:03:36 10° SW 03:09:22 42° WNW 03:15:13 10° N
Aureole 3 4.0 03:06:19 10° NNW 03:09:58 38° W 03:14:27 10° SSW
ATLAS CENTAUR R/B 4.2 03:09:13 10° SSE 03:11:48 17° ESE 03:14:20 10° ENE
Cosmos 2219 Rocket 3.4 03:08:41 10° NNW 03:13:59 39° NE 03:19:15 10° ESE
Cosmos 407 Rocket 4.4 03:10:02 10° S 03:15:00 52° ESE 03:20:02 10° NE
IDEFIX/ARIANE 42P 4.3 03:14:18 10° NNW 03:17:02 14° NW 03:18:52 12° WNW
CZ-4B R/B 4.2 03:13:33 10° N 03:17:41 48° WNW 03:21:38 10° SW
Cosmos 921 Rocket 4.3 03:13:54 10° NNW 03:18:15 44° ENE 03:22:35 10° SE
Cosmos 1607 4.1 03:11:44 10° NW 03:18:16 85° NE 03:24:46 10° SE
Cosmos 1400 Rocket 3.9 03:15:09 10° NW 03:18:17 23° W 03:21:23 10° SW
S3M 4.0 03:14:40 10° NNW 03:20:59 80° W 03:27:19 10° S
Cosmos 1763 Rocket 4.2 03:20:18 10° NNW 03:25:18 53° NE 03:30:16 10° SE
ARGOS Delta rocket 4.3 03:22:22 10° N 03:27:33 52° WNW 03:32:51 10° SW
Cosmos 1655 Rocket 4.4 03:22:04 10° S 03:28:21 75° E 03:34:44 10° NNE
Cosmos 2292 Rocket 3.6 03:25:25 10° S 03:28:43 66° E 03:32:56 10° NNE
COSMO-SKYMED 1 3.5 03:26:59 10° SSW 03:30:43 28° W 03:34:29 10° NW
Meteor 2-10 Rocket 3.7 03:26:16 10° NNW 03:31:02 44° W 03:35:49 10° SSW
ALOS 2.9 03:26:59 10° N 03:31:13 35° WNW 03:35:26 10° SW
Cosmos 2322 Rocket 2.3 03:25:47 10° NW 03:31:24 63° WSW 03:36:59 10° SSE
Cosmos 1300 4.4 03:30:06 10° NW 03:32:14 14° W 03:34:21 10° WSW
Cosmos 2266 Rocket 4.5 03:28:01 10° S 03:33:58 66° E 03:40:02 10° NNE
Cosmos 2237 4.2 03:34:19 10° NW 03:40:01 78° WSW 03:45:43 10° SSE
Cosmos 1833 Rocket 3.2 03:36:01 10° WSW 03:41:21 41° NW 03:46:43 10° NNE
deb Chang Zheng 4 4.4 03:39:01 10° N 03:42:42 29° WNW 03:46:24 10° WSW
MOS 1 Rocket 3.1 03:39:27 10° S 03:43:40 58° W 03:47:58 10° NNW
Cosmos 1626 3.7 03:41:54 10° W 03:44:15 16° WNW 03:46:37 10° NNW
Cosmos 1689 Rocket 4.0 03:43:59 10° WSW 03:45:18 12° W 03:46:37 10° WNW
H-2A R/B 2.7 03:43:56 10° NNE 03:48:24 87° E 03:52:42 10° SSW
CZ-4B R/B 4.1 03:44:07 10° NNE 03:49:24 55° ESE 03:54:36 10° S
Cosmos 1328 4.3 03:45:45 10° S 03:49:40 68° E 03:53:37 10° NNE
Cosmos 1315 Rocket 3.8 03:46:30 10° NNW 03:50:04 29° W 03:53:38 10° SSW
Cosmos 1553 Rocket 4.4 03:44:28 10° NNW 03:50:09 40° W 03:55:45 10° SSW
Cosmos 2058 Rocket 4.4 03:46:57 10° NW 03:50:11 20° W 03:53:24 10° SW
NOSS 3-2 (C) 4.0 03:44:06 10° W 03:50:12 51° NNW 03:57:19 10° ENE
Cosmos 2322 4.0 03:44:54 10° NNW 03:50:37 71° NE 03:56:19 10° SE
Cosmos 2084 3.6 03:46:26 10° SW 03:50:48 83° SE 03:55:16 10° NE
Cosmos 841 Rocket 4.4 03:46:40 10° NNW 03:51:47 49° NE 03:56:49 10° SE
